SCP
0 0 0 0 0 0 0 0 0 0 0 0 0 0 0 0 0 0 0 0 0 0 0 0 0 0 0 0 0 0 0 0 0 0 0 0 0 0 0 0 0 0 0 0
0 0 0 0 0 0 0 0 0 0 0 0 0 0 0 0 0 0 0 0 0 0 0 0 0 0 0 0 0 0 0 0 0 0 0 0 0 0 0 0 0 0 0 0
0 0 0 0 0 0 0 0 0 0 0 0 0 0 0 0 0 0 0 0 0 0 0 0 0 0 0 0 0 0 0 0 0 0 0 0 0 0 0 0 0 0 0 0
0 0 0 0 0 0 0 0 0 0 0 0 0 0 0 0 0 0 0 0 0 0 0 0 0 0 0 0 0 0 0 0 0 0 0 0 0 0 0 0 0 0 0 0
0 0 0 0 0 0 0 0 0 0 0 0 0 0 0 0 0 0 0 0 0 0 0 0 0 0 0 0 0 0 0 0 0 0 0 0 0 0 0 0 0 0 0 0
0 0 0 0 0 0 0 0 0 0 0 0 0 0 0 0 0 0 0 0 0 0 0 0 0 0 0 0 0 0 0 0 0 0 0 0 0 0 0 0 0 0 0 0
0 0 0 0 0 0 0 0 0 0 0 0 0 0 0 0 0 0 0 0 0 0 0 0 0 0 0 0 0 0 0 0 0 0 0 0 0 0 0 0 0 0 0 0
0 0 -0 0 0 0 0 0 0 0 0 0 0 0 0 0 0 0 0 0 0 0 0 0 0 0 0 0 0 0 0 0 0 0 0 0 0 0 0 0 0 0 0 0
-0 -0 0 0 0 0 0 0 0 0 0 0 0 0 0 0 0 0 0 0 0 0 0 0 0 0 0 0 0 0 0 0 0 0 0 0 0 0 0 0 0 0 0 0
0 0 0 0 0 0 0 0 0 0 0 0 0 0 0 0 0 0 0 0 0 0 0 0 0 0 0 0 0 0 0 0 0 0 0 0 0 0 0 0 0 0 0 0
0 0 0 0 0 0 0 0 0 0 0 0 0 0 0 0 0 0 0 0 0 0 0 0 0 0 0 0 0 0 0 0 0 0 0 0 0 0 0 0 0 0 0 0
0 0 0 0 0 0 0 0 0 0 0 0 0 0 0 0 0 0 0 0 0 0 0 0 0 0 0 0 0 0 0 0 0 0 0 0 0 0 0 0 0 -0 -0 -0
0 0 0 0 0 0 0 0 0 0 0 0 0 0 0 0 0 0 0 0 0 0 0 0 0 0 0 0 0 0 0 0 0 0 0 0 0 0 0 0 0 -0 -0 -0
0 0 0 0 0 0 0 0 0 0 0 0 0 0 0 0 0 0 0 0 0 0 0 0 0 0 0 0 0 0 0 0 0 0 0 0 0 0 0 0 -0 -0 -0 0
0 0 0 0 0 0 0 0 0 0 0 0 0 0 0 0 0 0 0 0 0 0 0 0 0 0 0 0 0 0 0 0 0 0 0 0 0 0 0 -0 -0 -0 0 0
0 0 0 0 0 0 0 0 0 0 0 0 0 0 0 0 0 0 0 0 0 0 0 0 0 0 0 0 0 0 0 0 0 0 0 0 0 0 0 -0 -0 0 0 0
0 0 0 0 0 0 0 0 0 0 0 0 0 0 0 0 0 0 0 0 0 0 0 0 0 0 0 0 0 0 0 0 0 0 0 0 0 0 -0 -0 -0 0 0 0
0 0 0 0 0 0 0 0 0 0 0 0 0 0 0 0 0 0 0 0 0 0 0 0 0 0 0 0 0 0 0 0 0 0 0 0 0 0 -0 -0 0 0 0 0
0 0 0 0 0 0 0 0 0 0 0 0 0 0 0 0 0 0 0 0 0 0 0 0 0 0 0 0 0 0 0 0 0 0 0 0 0 -0 -0 -0 0 0 0 -0
0 0 0 0 0 0 0 0 0 0 0 0 0 0 0 0 0 0 0 0 0 0 0 0 0 0 0 0 0 0 0 0 0 0 -0 0 -0 -0 -0 0 0 0 -0 -0
0 0 0 0 0 0 0 0 0 0 0 0 0 0 0 0 0 0 0 0 0 0 0 0 0 0 0 0 0 0 0 0 0 -0 -0 -0 -0 -0 -0 0 0 0 -0 -0
0 0 0 0 0 0 0 0 0 0 0 0 0 0 0 0 0 0 0 0 0 0 0 0 0 0 0 0 0 -0 -0 0 -0 -0 -0 -0 -0 -0 -0 -0 0 -0 -0 -0
0 0 0 0 0 0 0 0 0 0 0 0 0 0 0 0 0 0 0 0 0 0 0 0 0 0 0 0 0 -0 -0 -0 -0 -0 -0 -0 -0 0 0 0 -0 -0 -0 -0
0 0 0 0 0 0 0 0 0 0 0 0 0 0 0 0 0 0 0 0 0 0 0 0 0 0 0 0 -0 -0 -0 -0 -0 -0 -0 -0 -0 0 0 -0 -0 -0 0 -0
0 0 0 0 0 0 0 0 0 0 0 0 0 0 0 0 0 0 0 0 0 0 0 0 0 0 0 -0 -0 -0 -0 -0 -0 -0 -0 -0 0 0 0 0 -0 -0 0 0
0 0 0 0 0 0 0 0 0 0 0 0 0 0 0 0 0 0 0 0 0 0 0 0 0 -0 -0 -0 -0 -0 -0 -0 -0 -0 -0 0 0 -0 -0 -0 0 0 0 0
0 0 0 0 0 0 0 0 0 0 0 0 0 0 0 0 0 0 0 0 0 0 0 0 -0 -0 -0 -0 -0 -0 -0 -0 -0 -0 -0 0 0 -0 0 0 0 0 0 0
Wind_Speed_500mb
13 7 8 9 10 13 14 13 7 6 8 17 19 19 34 31 23 22 19 15 4 8 14 19 21 24 27 28 32 27 26 30 31 37 48 53 54 59 60 59 59 60 62 60
6 7 2 7 10 12 13 12 12 13 9 14 22 21 15 22 20 15 10 9 5 10 16 20 24 26 29 21 20 22 26 32 39 44 45 50 57 59 59 59 62 61 59 58
3 1 7 11 5 15 10 8 2 9 7 10 8 9 12 12 16 9 7 4 7 14 20 23 27 27 26 22 25 28 32 35 39 42 47 55 58 58 58 63 59 61 55 64
3 5 5 5 8 11 4 7 9 11 10 5 5 5 6 8 8 15 8 2 11 17 22 26 28 25 24 28 30 31 33 38 39 46 57 57 57 58 60 60 61 57 69 61
2 5 4 5 5 3 3 3 13 7 13 11 9 6 6 16 15 9 1 7 12 18 24 25 25 25 28 33 34 32 36 38 47 56 56 56 56 59 62 62 52 66 64 62
4 2 8 4 9 4 6 3 4 9 14 16 20 4 6 16 11 4 4 9 16 24 23 23 26 29 33 34 36 34 38 47 54 53 53 53 56 59 59 50 62 60 61 59
7 5 11 11 16 9 4 10 14 10 12 18 9 9 25 13 6 2 6 12 20 21 25 26 27 31 34 36 34 38 45 52 51 50 49 52 56 54 52 64 65 56 61 57
5 5 12 29 10 7 9 11 12 6 10 18 26 21 15 9 2 4 11 16 20 23 26 29 31 32 34 37 39 43 48 49 49 47 51 51 48 54 68 57 53 59 59 56
12 8 13 37 4 16 14 13 10 13 16 19 19 16 10 5 2 7 12 17 22 28 30 31 32 33 39 41 42 43 49 48 46 50 49 44 52 65 59 48 56 61 55 58
6 7 18 26 28 14 10 8 11 14 21 20 19 15 8 2 4 11 17 23 28 30 35 35 37 39 40 40 41 45 49 47 48 46 45 49 62 53 50 53 60 56 60 59
9 13 14 19 29 25 19 14 19 19 18 20 18 11 6 1 9 16 23 27 30 35 37 38 40 43 39 38 43 48 46 47 44 44 48 59 56 49 50 52 53 56 53 52
9 5 10 10 18 22 26 22 23 25 22 19 14 8 1 6 14 22 29 36 34 35 36 43 41 40 39 38 41 44 47 45 43 48 50 61 52 57 51 52 52 47 44 45
3 12 15 15 17 22 24 25 25 23 19 13 7 3 6 14 22 28 33 34 33 41 44 37 36 40 41 41 42 43 42 40 46 44 55 56 51 53 61 62 53 52 46 44
17 19 11 16 13 22 23 27 26 21 17 14 10 6 11 19 26 31 32 35 39 38 36 31 33 39 39 41 43 41 36 39 37 49 51 47 43 49 56 60 63 61 50 48
23 18 9 24 21 28 27 28 27 20 15 7 4 11 17 21 28 33 33 35 32 37 33 34 38 39 39 43 41 36 37 37 47 40 48 41 41 47 54 59 57 55 54 55
24 21 20 23 30 29 28 25 22 17 11 8 11 13 17 27 28 31 32 29 33 35 37 36 38 40 44 41 35 34 34 42 35 42 51 40 44 49 56 60 57 52 57 55
37 29 32 33 32 28 26 21 18 12 12 14 11 16 26 26 28 32 31 27 29 33 33 33 32 42 41 35 34 36 36 39 37 51 39 40 47 51 51 53 54 54 56 56
22 25 30 30 30 26 22 18 19 15 11 7 14 21 23 28 28 28 29 30 27 27 30 35 44 38 31 27 33 36 32 34 43 40 39 44 49 49 48 50 52 56 56 58
28 32 28 25 25 23 20 15 14 14 7 11 18 20 23 24 25 25 28 27 29 33 31 39 37 31 25 29 31 36 33 33 42 39 39 45 50 47 48 50 52 54 54 56
36 34 33 34 27 24 21 16 11 3 8 15 20 22 23 21 23 24 28 28 26 35 34 31 31 28 25 22 33 34 32 34 35 38 40 44 48 49 49 52 49 50 54 53
37 35 30 25 22 19 14 10 5 6 12 16 19 19 20 25 28 29 28 24 24 25 26 28 32 29 25 30 32 33 31 32 33 39 41 42 46 48 51 54 52 51 52 56
34 33 29 22 18 15 9 5 6 8 11 15 15 18 24 28 29 31 23 22 29 31 26 23 25 27 26 29 31 32 30 31 31 39 42 41 44 47 49 51 52 53 53 57
36 33 29 23 18 13 6 4 6 8 11 13 18 23 27 28 26 30 30 31 31 23 17 17 25 23 26 27 30 31 32 32 34 39 40 39 44 47 48 51 53 53 57 58
36 29 23 15 10 9 13 9 6 8 11 16 20 24 27 28 25 28 26 29 24 17 13 19 21 22 24 27 29 30 31 31 34 40 39 40 46 46 49 52 53 54 56 61
30 23 15 13 15 10 4 1 5 9 12 13 16 19 19 21 25 26 27 22 17 12 16 19 17 20 23 27 28 30 31 32 33 40 37 43 48 48 51 52 52 52 58 60
25 19 19 17 9 6 5 2 4 10 15 16 16 14 15 21 19 24 20 15 12 14 14 15 17 20 23 25 28 31 32 32 33 39 38 43 48 51 53 53 53 54 56 60
27 22 21 15 12 8 3 2 5 8 11 14 18 8 14 17 19 20 10 14 16 16 12 16 18 21 24 25 28 31 32 32 33 34 40 42 46 50 56 58 55 54 55 58
Wind_Direction_500mb
85 40 352 9 161 187 222 244 264 271 39 170 187 186 183 178 181 187 175 187 126 356 333 322 314 312 308 299 300 292 292 302 306 296 295 303 305 306 308 307 305 304 303 303
241 134 256 268 249 249 226 245 286 308 316 60 59 108 120 149 174 190 213 127 35 335 316 310 307 307 301 311 301 300 297 295 294 300 308 304 304 304 306 306 304 307 305 303
109 189 288 268 264 217 213 212 323 252 109 109 83 120 141 177 164 179 152 60 336 312 307 312 311 306 306 300 292 294 302 305 307 310 303 302 304 308 308 307 310 307 300 293
271 340 252 135 35 344 165 132 169 122 141 76 88 147 147 139 132 130 138 305 308 307 308 310 306 304 294 294 306 309 305 307 310 300 303 308 311 311 313 312 312 302 305 310
132 234 319 156 200 148 169 179 193 218 131 160 113 91 150 160 139 109 93 279 291 296 305 308 312 310 301 302 310 310 310 306 297 307 311 311 314 315 314 315 309 307 311 315
121 125 229 122 134 114 64 266 341 166 151 166 143 207 145 120 116 147 274 305 308 309 322 313 308 301 302 306 308 312 305 299 308 310 313 316 315 313 317 310 311 312 316 318
218 204 286 116 136 120 127 221 162 161 169 176 132 122 148 139 148 243 308 313 321 328 319 319 311 306 304 304 306 304 300 304 313 318 318 312 312 318 306 304 314 316 318 318
225 153 267 133 117 197 169 127 146 140 131 110 139 141 148 157 173 334 331 336 335 329 321 318 318 314 308 305 303 301 301 310 318 318 311 315 317 307 305 318 321 322 320 320
160 216 144 177 125 158 153 158 157 162 163 173 158 152 163 179 349 329 327 329 326 324 326 323 319 311 305 305 303 300 304 313 316 312 319 318 308 307 322 327 325 322 321 326
48 197 179 198 216 221 179 150 170 182 184 171 157 161 168 160 321 329 326 320 316 316 316 318 318 319 314 309 302 297 306 314 314 319 318 307 311 328 331 326 324 323 324 322
242 243 180 220 219 217 202 190 178 172 174 160 167 172 166 349 334 323 312 314 314 312 313 312 309 312 312 305 300 302 309 314 317 317 316 311 324 335 328 322 325 319 317 319
220 199 174 100 196 198 195 186 176 166 160 174 170 156 179 312 309 310 308 309 317 317 310 305 309 314 314 308 302 304 311 318 319 314 313 320 333 330 331 330 330 327 322 320
310 143 144 133 151 175 184 173 175 172 175 171 165 185 274 296 303 307 315 317 313 307 310 310 315 317 318 311 305 312 315 317 318 318 316 326 332 332 334 333 333 334 333 331
201 167 124 156 168 167 169 168 167 166 169 172 185 240 290 300 307 315 314 309 310 312 316 324 316 313 312 308 311 316 319 319 313 311 321 332 335 336 339 337 334 334 338 339
183 178 121 165 160 160 167 169 163 170 179 193 257 292 304 308 305 308 314 315 313 315 323 312 313 314 311 312 317 320 322 315 314 324 332 336 335 337 340 341 338 335 338 344
172 174 156 157 158 165 163 170 171 181 190 211 250 297 303 301 313 312 311 314 313 316 317 320 318 318 319 319 320 324 325 323 341 320 332 341 339 337 339 341 343 341 345 342
163 167 165 161 163 167 172 181 182 187 207 249 302 297 311 317 310 312 319 321 314 316 329 321 309 314 317 320 324 329 328 336 327 322 345 345 342 340 340 339 348 348 349 344
174 171 167 167 166 169 168 175 186 210 249 275 289 306 319 318 324 324 315 314 320 325 319 309 321 326 322 317 323 329 333 328 325 338 351 346 341 338 344 345 350 351 349 347
155 151 152 156 158 161 168 165 189 221 250 290 312 326 325 318 316 323 324 326 332 325 313 318 330 329 330 327 333 340 342 336 335 348 349 343 343 345 347 349 351 351 348 350
146 150 154 149 156 160 159 182 198 213 281 308 327 331 331 337 335 326 316 324 328 321 318 336 347 335 332 329 336 342 344 337 342 349 350 342 347 348 353 354 348 350 351 349
151 156 153 150 153 155 171 182 201 266 302 324 333 336 335 331 330 330 335 343 331 316 323 342 340 334 338 337 342 346 349 352 346 349 347 345 346 349 353 354 352 353 352 353
155 151 145 154 148 156 172 218 286 304 323 334 333 331 332 339 346 345 359 339 321 315 323 329 330 339 346 345 349 351 355 347 348 354 354 352 353 354 355 353 353 351 352 349
154 150 151 155 166 170 208 251 280 334 333 338 334 333 336 343 349 350 344 337 334 326 333 327 333 343 348 351 352 355 356 355 1 359 358 359 358 357 355 356 355 354 353 352
152 153 161 172 171 174 169 234 320 341 345 342 344 337 342 348 345 345 340 334 339 334 337 335 344 352 353 357 356 360 2 3 1 4 2 5 3 3 1 359 359 359 356 356
156 163 166 163 158 169 189 136 350 351 348 339 327 331 356 349 340 338 342 348 357 2 339 344 2 360 357 1 1 5 6 5 7 6 9 9 9 7 4 1 0 359 357 357
162 160 160 165 167 168 135 50 342 337 332 339 336 4 345 336 339 336 346 357 357 355 350 12 6 3 7 6 8 10 8 8 10 11 14 16 13 12 7 4 2 1 360 360
162 162 161 164 162 162 153 333 336 331 328 310 322 2 328 338 344 348 13 18 6 351 19 18 9 12 14 12 13 13 11 11 12 12 12 15 14 13 9 7 5 4 4 2
Wind_Speed_850mb
13 7 8 9 10 13 14 13 7 6 8 17 19 19 34 31 23 22 19 15 4 8 14 19 21 24 27 28 32 27 26 30 31 37 48 53 54 59 60 59 59 60 62 60
6 7 2 7 10 12 13 12 12 13 9 14 22 21 15 22 20 15 10 9 5 10 16 20 24 26 29 21 20 22 26 32 39 44 45 50 57 59 59 59 62 61 59 58
3 1 7 11 5 15 10 8 2 9 7 10 8 9 12 12 16 9 7 4 7 14 20 23 27 27 26 22 25 28 32 35 39 42 47 55 58 58 58 63 59 61 55 64
3 5 5 5 8 11 4 7 9 11 10 5 5 5 6 8 8 15 8 2 11 17 22 26 28 25 24 28 30 31 33 38 39 46 57 57 57 58 60 60 61 57 69 61
2 5 4 5 5 3 3 3 13 7 13 11 9 6 6 16 15 9 1 7 12 18 24 25 25 25 28 33 34 32 36 38 47 56 56 56 56 59 62 62 52 66 64 62
4 2 8 4 9 4 6 3 4 9 14 16 20 4 6 16 11 4 4 9 16 24 23 23 26 29 33 34 36 34 38 47 54 53 53 53 56 59 59 50 62 60 61 59
7 5 11 11 16 9 4 10 14 10 12 18 9 9 25 13 6 2 6 12 20 21 25 26 27 31 34 36 34 38 45 52 51 50 49 52 56 54 52 64 65 56 61 57
5 5 12 29 10 7 9 11 12 6 10 18 26 21 15 9 2 4 11 16 20 23 26 29 31 32 34 37 39 43 48 49 49 47 51 51 48 54 68 57 53 59 59 56
12 8 13 37 4 16 14 13 10 13 16 19 19 16 10 5 2 7 12 17 22 28 30 31 32 33 39 41 42 43 49 48 46 50 49 44 52 65 59 48 56 61 55 58
6 7 18 26 28 14 10 8 11 14 21 20 19 15 8 2 4 11 17 23 28 30 35 35 37 39 40 40 41 45 49 47 48 46 45 49 62 53 50 53 60 56 60 59
9 13 14 19 29 25 19 14 19 19 18 20 18 11 6 1 9 16 23 27 30 35 37 38 40 43 39 38 43 48 46 47 44 44 48 59 56 49 50 52 53 56 53 52
9 5 10 10 18 22 26 22 23 25 22 19 14 8 1 6 14 22 29 36 34 35 36 43 41 40 39 38 41 44 47 45 43 48 50 61 52 57 51 52 52 47 44 45
3 12 15 15 17 22 24 25 25 23 19 13 7 3 6 14 22 28 33 34 33 41 44 37 36 40 41 41 42 43 42 40 46 44 55 56 51 53 61 62 53 52 46 44
17 19 11 16 13 22 23 27 26 21 17 14 10 6 11 19 26 31 32 35 39 38 36 31 33 39 39 41 43 41 36 39 37 49 51 47 43 49 56 60 63 61 50 48
23 18 9 24 21 28 27 28 27 20 15 7 4 11 17 21 28 33 33 35 32 37 33 34 38 39 39 43 41 36 37 37 47 40 48 41 41 47 54 59 57 55 54 55
24 21 20 23 30 29 28 25 22 17 11 8 11 13 17 27 28 31 32 29 33 35 37 36 38 40 44 41 35 34 34 42 35 42 51 40 44 49 56 60 57 52 57 55
37 29 32 33 32 28 26 21 18 12 12 14 11 16 26 26 28 32 31 27 29 33 33 33 32 42 41 35 34 36 36 39 37 51 39 40 47 51 51 53 54 54 56 56
22 25 30 30 30 26 22 18 19 15 11 7 14 21 23 28 28 28 29 30 27 27 30 35 44 38 31 27 33 36 32 34 43 40 39 44 49 49 48 50 52 56 56 58
28 32 28 25 25 23 20 15 14 14 7 11 18 20 23 24 25 25 28 27 29 33 31 39 37 31 25 29 31 36 33 33 42 39 39 45 50 47 48 50 52 54 54 56
36 34 33 34 27 24 21 16 11 3 8 15 20 22 23 21 23 24 28 28 26 35 34 31 31 28 25 22 33 34 32 34 35 38 40 44 48 49 49 52 49 50 54 53
37 35 30 25 22 19 14 10 5 6 12 16 19 19 20 25 28 29 28 24 24 25 26 28 32 29 25 30 32 33 31 32 33 39 41 42 46 48 51 54 52 51 52 56
34 33 29 22 18 15 9 5 6 8 11 15 15 18 24 28 29 31 23 22 29 31 26 23 25 27 26 29 31 32 30 31 31 39 42 41 44 47 49 51 52 53 53 57
36 33 29 23 18 13 6 4 6 8 11 13 18 23 27 28 26 30 30 31 31 23 17 17 25 23 26 27 30 31 32 32 34 39 40 39 44 47 48 51 53 53 57 58
36 29 23 15 10 9 13 9 6 8 11 16 20 24 27 28 25 28 26 29 24 17 13 19 21 22 24 27 29 30 31 31 34 40 39 40 46 46 49 52 53 54 56 61
30 23 15 13 15 10 4 1 5 9 12 13 16 19 19 21 25 26 27 22 17 12 16 19 17 20 23 27 28 30 31 32 33 40 37 43 48 48 51 52 52 52 58 60
25 19 19 17 9 6 5 2 4 10 15 16 16 14 15 21 19 24 20 15 12 14 14 15 17 20 23 25 28 31 32 32 33 39 38 43 48 51 53 53 53 54 56 60
27 22 21 15 12 8 3 2 5 8 11 14 18 8 14 17 19 20 10 14 16 16 12 16 18 21 24 25 28 31 32 32 33 34 40 42 46 50 56 58 55 54 55 58
Wind_Direction_850mb
85 40 352 9 161 187 222 244 264 271 39 170 187 186 183 178 181 187 175 187 126 356 333 322 314 312 308 299 300 292 292 302 306 296 295 303 305 306 308 307 305 304 303 303
241 134 256 268 249 249 226 245 286 308 316 60 59 108 120 149 174 190 213 127 35 335 316 310 307 307 301 311 301 300 297 295 294 300 308 304 304 304 306 306 304 307 305 303
109 189 288 268 264 217 213 212 323 252 109 109 83 120 141 177 164 179 152 60 336 312 307 312 311 306 306 300 292 294 302 305 307 310 303 302 304 308 308 307 310 307 300 293
271 340 252 135 35 344 165 132 169 122 141 76 88 147 147 139 132 130 138 305 308 307 308 310 306 304 294 294 306 309 305 307 310 300 303 308 311 311 313 312 312 302 305 310
132 234 319 156 200 148 169 179 193 218 131 160 113 91 150 160 139 109 93 279 291 296 305 308 312 310 301 302 310 310 310 306 297 307 311 311 314 315 314 315 309 307 311 315
121 125 229 122 134 114 64 266 341 166 151 166 143 207 145 120 116 147 274 305 308 309 322 313 308 301 302 306 308 312 305 299 308 310 313 316 315 313 317 310 311 312 316 318
218 204 286 116 136 120 127 221 162 161 169 176 132 122 148 139 148 243 308 313 321 328 319 319 311 306 304 304 306 304 300 304 313 318 318 312 312 318 306 304 314 316 318 318
225 153 267 133 117 197 169 127 146 140 131 110 139 141 148 157 173 334 331 336 335 329 321 318 318 314 308 305 303 301 301 310 318 318 311 315 317 307 305 318 321 322 320 320
160 216 144 177 125 158 153 158 157 162 163 173 158 152 163 179 349 329 327 329 326 324 326 323 319 311 305 305 303 300 304 313 316 312 319 318 308 307 322 327 325 322 321 326
48 197 179 198 216 221 179 150 170 182 184 171 157 161 168 160 321 329 326 320 316 316 316 318 318 319 314 309 302 297 306 314 314 319 318 307 311 328 331 326 324 323 324 322
242 243 180 220 219 217 202 190 178 172 174 160 167 172 166 349 334 323 312 314 314 312 313 312 309 312 312 305 300 302 309 314 317 317 316 311 324 335 328 322 325 319 317 319
220 199 174 100 196 198 195 186 176 166 160 174 170 156 179 312 309 310 308 309 317 317 310 305 309 314 314 308 302 304 311 318 319 314 313 320 333 330 331 330 330 327 322 320
310 143 144 133 151 175 184 173 175 172 175 171 165 185 274 296 303 307 315 317 313 307 310 310 315 317 318 311 305 312 315 317 318 318 316 326 332 332 334 333 333 334 333 331
201 167 124 156 168 167 169 168 167 166 169 172 185 240 290 300 307 315 314 309 310 312 316 324 316 313 312 308 311 316 319 319 313 311 321 332 335 336 339 337 334 334 338 339
183 178 121 165 160 160 167 169 163 170 179 193 257 292 304 308 305 308 314 315 313 315 323 312 313 314 311 312 317 320 322 315 314 324 332 336 335 337 340 341 338 335 338 344
172 174 156 157 158 165 163 170 171 181 190 211 250 297 303 301 313 312 311 314 313 316 317 320 318 318 319 319 320 324 325 323 341 320 332 341 339 337 339 341 343 341 345 342
163 167 165 161 163 167 172 181 182 187 207 249 302 297 311 317 310 312 319 321 314 316 329 321 309 314 317 320 324 329 328 336 327 322 345 345 342 340 340 339 348 348 349 344
174 171 167 167 166 169 168 175 186 210 249 275 289 306 319 318 324 324 315 314 320 325 319 309 321 326 322 317 323 329 333 328 325 338 351 346 341 338 344 345 350 351 349 347
155 151 152 156 158 161 168 165 189 221 250 290 312 326 325 318 316 323 324 326 332 325 313 318 330 329 330 327 333 340 342 336 335 348 349 343 343 345 347 349 351 351 348 350
146 150 154 149 156 160 159 182 198 213 281 308 327 331 331 337 335 326 316 324 328 321 318 336 347 335 332 329 336 342 344 337 342 349 350 342 347 348 353 354 348 350 351 349
151 156 153 150 153 155 171 182 201 266 302 324 333 336 335 331 330 330 335 343 331 316 323 342 340 334 338 337 342 346 349 352 346 349 347 345 346 349 353 354 352 353 352 353
155 151 145 154 148 156 172 218 286 304 323 334 333 331 332 339 346 345 359 339 321 315 323 329 330 339 346 345 349 351 355 347 348 354 354 352 353 354 355 353 353 351 352 349
154 150 151 155 166 170 208 251 280 334 333 338 334 333 336 343 349 350 344 337 334 326 333 327 333 343 348 351 352 355 356 355 1 359 358 359 358 357 355 356 355 354 353 352
152 153 161 172 171 174 169 234 320 341 345 342 344 337 342 348 345 345 340 334 339 334 337 335 344 352 353 357 356 360 2 3 1 4 2 5 3 3 1 359 359 359 356 356
156 163 166 163 158 169 189 136 350 351 348 339 327 331 356 349 340 338 342 348 357 2 339 344 2 360 357 1 1 5 6 5 7 6 9 9 9 7 4 1 0 359 357 357
162 160 160 165 167 168 135 50 342 337 332 339 336 4 345 336 339 336 346 357 357 355 350 12 6 3 7 6 8 10 8 8 10 11 14 16 13 12 7 4 2 1 360 360
162 162 161 164 162 162 153 333 336 331 328 310 322 2 328 338 344 348 13 18 6 351 19 18 9 12 14 12 13 13 11 11 12 12 12 15 14 13 9 7 5 4 4 2